Date String (YYYY-MM-DD hh:mm:ss) UTC,Instrument flags,absolute air pressure of the measurement (hPa),sample flow rate (lpm),inlet stack bypass flow (lpm),air temperature of the measurement (°C),ambient temperature measured by the external sensor (°C),aerosol sample conditioner tube jacket temperature (°C),OPC LED temperature (°C),internal box temperature (°C),relative humidity of the measurement (%),span deviation,mass concentration of particles derived from Lorenz-Mie calculation of OPC scattering (μg/m³),mass concentration of particles derived from Lorenz-Mie calculation of OPC scattering (μg/m³),mass concentration of particles derived from Lorenz-Mie calculation of OPC scattering (μg/m³)
DateTimeUTC,F1_M11,P_M11,Q1_M11,Q2_M11,T1_M11,T2_M11,T3_M11,T4_M11,T5_M11,U1_M11,ZSPAN_M11,X0_M11,X2_M11,X1_M11
2023-09-17 21:00:00,SystemResetWarning,0832.7,5.00,000.00,027.6,025.8,000.0,035.9,029.2,19.3,0000.0,0007.58,0003.67,0003.37
2023-09-17 21:01:00,SystemResetWarning,0832.7,5.00,000.00,027.6,026.1,000.0,035.9,029.3,18.5,0000.0,0007.55,0003.67,0003.38
2023-09-17 21:02:00,SystemResetWarning,0832.7,5.00,000.00,027.7,026.3,000.0,036.0,029.4,19.5,0000.0,0007.54,0003.69,0003.39
2023-09-17 21:03:00,SystemResetWarning,0832.7,5.00,000.00,027.7,026.6,000.0,036.0,029.4,18.5,0000.0,0007.18,0003.68,0003.38
2023-09-17 21:04:00,SystemResetWarning,0832.7,5.00,000.00,027.8,026.8,000.0,036.0,029.5,18.5,0000.0,0007.20,0003.70,0003.39
2023-09-17 21:05:00,SystemResetWarning,0832.7,4.99,000.00,027.8,026.7,000.0,036.0,029.5,18.3,0000.0,0007.11,0003.69,0003.38
2023-09-17 21:06:00,SystemResetWarning,0832.7,5.00,000.00,027.7,025.1,000.0,036.0,029.0,18.7,0000.0,0007.31,0003.72,0003.38
2023-09-17 21:07:00,SystemResetWarning,0832.6,5.01,000.00,027.6,024.1,000.0,035.9,028.8,17.7,0000.0,0007.51,0003.72,0003.37
2023-09-17 21:08:00,SystemResetWarning,0832.7,5.01,000.00,027.6,024.2,000.0,035.9,028.8,17.5,0000.0,0008.11,0003.74,0003.36
2023-09-17 21:09:00,SystemResetWarning,0832.6,5.01,000.00,027.5,024.6,000.0,035.9,028.9,17.7,0000.0,0008.19,0003.76,0003.36
2023-09-17 21:10:00,SystemResetWarning,0832.6,5.00,000.00,027.5,025.0,000.0,035.9,029.0,18.0,0000.0,0008.34,0003.75,0003.37
2023-09-17 21:11:00,SystemResetWarning,0832.6,5.00,000.00,027.5,025.4,000.0,035.9,029.1,17.3,0000.0,0008.40,0003.74,0003.38
2023-09-17 21:12:00,SystemResetWarning,0832.6,5.01,000.00,027.6,025.8,000.0,035.9,029.2,16.6,0000.0,0008.24,0003.77,0003.38
2023-09-17 21:13:00,SystemResetWarning,0832.6,5.00,000.00,027.6,026.1,000.0,035.9,029.3,16.7,0000.0,0008.27,0003.78,0003.39
2023-09-17 21:14:00,SystemResetWarning,0832.6,5.00,000.00,027.7,026.4,000.0,036.0,029.4,17.3,0000.0,0008.31,0003.81,0003.40
2023-09-17 21:15:00,SystemResetWarning,0832.6,4.99,000.00,027.7,026.6,000.0,036.0,029.4,17.2,0000.0,0008.08,0003.82,0003.42
2023-09-17 21:16:00,SystemResetWarning,0832.5,4.99,000.00,027.8,026.8,000.0,036.0,029.5,16.9,0000.0,0008.01,0003.82,0003.42
2023-09-17 21:17:00,SystemResetWarning,0832.5,4.99,000.00,027.8,026.4,000.0,036.0,029.4,17.0,0000.0,0007.95,0003.79,0003.42
2023-09-17 21:18:00,SystemResetWarning,0832.5,5.01,000.00,027.7,024.7,000.0,035.9,028.9,17.7,0000.0,0007.94,0003.78,0003.42
2023-09-17 21:19:00,SystemResetWarning,0832.6,5.00,000.00,027.6,024.0,000.0,035.9,028.8,18.8,0000.0,0007.63,0003.78,0003.42
2023-09-17 21:20:00,SystemResetWarning,0832.5,5.01,000.00,027.6,024.3,000.0,035.9,028.9,17.1,0000.0,0007.56,0003.77,0003.41
2023-09-17 21:21:00,SystemResetWarning,0832.5,4.99,000.00,027.5,024.7,000.0,035.9,028.9,16.6,0000.0,0007.50,0003.78,0003.41
2023-09-17 21:22:00,SystemResetWarning,0832.5,4.99,000.00,027.5,025.1,000.0,035.9,029.0,17.1,0000.0,0007.88,0003.78,0003.39
2023-09-17 21:23:00,SystemResetWarning,0832.5,5.00,000.00,027.6,025.5,000.0,035.9,029.1,17.3,0000.0,0007.86,0003.77,0003.39
2023-09-17 21:24:00,SystemResetWarning,0832.5,5.01,000.00,027.6,025.9,000.0,035.9,029.2,17.5,0000.0,0007.80,0003.75,0003.38
2023-09-17 21:25:00,SystemResetWarning,0832.5,5.00,000.00,027.6,026.2,000.0,035.9,029.3,16.6,0000.0,0007.74,0003.73,0003.36
2023-09-17 21:26:00,SystemResetWarning,0832.5,4.99,000.00,027.7,026.4,000.0,036.0,029.4,17.1,0000.0,0007.78,0003.73,0003.34
2023-09-17 21:27:00,SystemResetWarning,0832.5,5.00,000.00,027.7,026.7,000.0,036.0,029.5,16.9,0000.0,0007.82,0003.72,0003.32
2023-09-17 21:28:00,SystemResetWarning,0832.5,5.01,000.00,027.8,026.9,000.0,036.0,029.6,16.5,0000.0,0007.79,0003.71,0003.31
2023-09-17 21:29:00,SystemResetWarning,0832.5,5.00,000.00,027.8,026.0,000.0,036.0,029.3,17.6,0000.0,0007.85,0003.75,0003.30
2023-09-17 21:30:00,SystemResetWarning,0832.5,5.00,000.00,027.7,024.4,000.0,035.9,028.9,17.5,0000.0,0007.53,0003.73,0003.30
2023-09-17 21:31:00,SystemResetWarning,0832.4,5.01,000.00,027.6,024.1,000.0,035.9,028.9,17.0,0000.0,0007.35,0003.69,0003.29
2023-09-17 21:32:00,SystemResetWarning,0832.4,5.01,000.00,027.5,024.4,000.0,035.9,028.9,17.1,0000.0,0007.29,0003.66,0003.27
2023-09-17 21:33:00,SystemResetWarning,0832.3,4.99,000.00,027.5,024.8,000.0,035.9,029.0,16.9,0000.0,0005.95,0003.64,0003.26
2023-09-17 21:34:00,SystemResetWarning,0832.4,5.00,000.00,027.5,025.2,000.0,035.9,029.1,17.1,0000.0,0005.56,0003.59,0003.24
2023-09-17 21:35:00,SystemResetWarning,0832.4,5.01,000.00,027.6,025.6,000.0,035.9,029.2,18.1,0000.0,0005.56,0003.57,0003.22
2023-09-17 21:36:00,SystemResetWarning,0832.4,5.00,000.00,027.6,026.0,000.0,035.9,029.3,18.0,0000.0,0006.20,0003.56,0003.21
2023-09-17 21:37:00,SystemResetWarning,0832.3,4.99,000.00,027.7,026.3,000.0,036.0,029.4,17.8,0000.0,0007.48,0003.57,0003.20
2023-09-17 21:38:00,SystemResetWarning,0832.3,5.00,000.00,027.7,026.5,000.0,036.0,029.4,17.6,0000.0,0007.37,0003.54,0003.18
2023-09-17 21:39:00,SystemResetWarning,0832.3,5.00,000.00,027.8,026.8,000.0,036.0,029.5,17.6,0000.0,0007.34,0003.52,0003.17
2023-09-17 21:40:00,SystemResetWarning,0832.3,5.00,000.00,027.8,026.8,000.0,036.0,029.6,17.8,0000.0,0007.22,0003.46,0003.15
2023-09-17 21:41:00,SystemResetWarning,0832.3,4.98,000.00,027.8,025.5,000.0,036.0,029.1,17.1,0000.0,0007.45,0003.43,0003.13
2023-09-17 21:42:00,SystemResetWarning,0832.3,5.02,000.00,027.7,024.2,000.0,035.9,028.8,17.5,0000.0,0007.42,0003.40,0003.12
2023-09-17 21:43:00,SystemResetWarning,0832.3,5.01,000.00,027.6,024.2,000.0,035.9,028.9,17.7,0000.0,0007.45,0003.40,0003.10
2023-09-17 21:44:00,SystemResetWarning,0832.3,4.98,000.00,027.5,024.5,000.0,035.9,028.9,17.4,0000.0,0007.58,0003.42,0003.10
2023-09-17 21:45:00,SystemResetWarning,0832.3,5.01,000.00,027.5,024.9,000.0,035.9,029.0,18.1,0000.0,0007.63,0003.43,0003.09
2023-09-17 21:46:00,SystemResetWarning,0832.3,5.02,000.00,027.5,025.3,000.0,035.9,029.1,17.5,0000.0,0007.67,0003.44,0003.09
2023-09-17 21:47:00,SystemResetWarning,0832.3,4.99,000.00,027.6,025.7,000.0,035.9,029.2,17.9,0000.0,0007.68,0003.44,0003.08
2023-09-17 21:48:00,SystemResetWarning,0832.3,4.99,000.00,027.6,026.1,000.0,035.9,029.3,17.7,0000.0,0006.78,0003.41,0003.06
2023-09-17 21:49:00,SystemResetWarning,0832.3,5.01,000.00,027.7,026.4,000.0,036.0,029.4,17.6,0000.0,0005.68,0003.36,0003.05
2023-09-17 21:50:00,SystemResetWarning,0832.2,5.01,000.00,027.7,026.6,000.0,036.0,029.4,17.1,0000.0,0005.89,0003.35,0003.05
2023-09-17 21:51:00,SystemResetWarning,0832.2,5.00,000.00,027.8,026.8,000.0,036.0,029.5,17.3,0000.0,0006.04,0003.36,0003.06
2023-09-17 21:52:00,SystemResetWarning,0832.2,5.00,000.00,027.8,027.0,000.0,036.0,029.6,17.3,0000.0,0005.87,0003.37,0003.06
2023-09-17 21:53:00,SystemResetWarning,0832.2,4.98,000.00,027.8,026.1,000.0,036.0,029.4,17.8,0000.0,0005.61,0003.37,0003.07
2023-09-17 21:54:00,SystemResetWarning,0832.2,5.00,000.00,027.7,024.5,000.0,036.0,028.9,17.8,0000.0,0005.59,0003.38,0003.08
2023-09-17 21:55:00,SystemResetWarning,0832.2,5.01,000.00,027.6,024.2,000.0,035.9,028.9,17.6,0000.0,0005.54,0003.38,0003.08
2023-09-17 21:56:00,SystemResetWarning,0832.2,5.01,000.00,027.6,024.5,000.0,035.9,029.0,16.9,0000.0,0005.49,0003.38,0003.10
2023-09-17 21:57:00,SystemResetWarning,0832.2,4.99,000.00,027.6,024.9,000.0,035.9,029.0,16.8,0000.0,0005.51,0003.39,0003.09
2023-09-17 21:58:00,SystemResetWarning,0832.2,5.00,000.00,027.6,025.3,000.0,035.9,029.1,17.0,0000.0,0005.52,0003.39,0003.09
2023-09-17 21:59:00,SystemResetWarning,0832.2,5.00,000.00,027.6,025.7,000.0,035.9,029.2,17.2,0000.0,0005.78,0003.43,0003.10
